EN

Hourly Weather Bronsko

Today, 20 April, Tuesday

Time Temperature Precipitation Wind Pressure Humidity
00:00 +8°C° 0 mm 2 mps 756 mmHg 85%
01:00 +8°C° 0 mm 1 mps 756 mmHg 85%
02:00 +8°C° 0 mm 1 mps 756 mmHg 85%
03:00 +8°C° 0 mm 1 mps 756 mmHg 85%
04:00 +8°C° 0 mm 1 mps 756 mmHg 85%
05:00 +9°C° 0 mm 1 mps 756 mmHg 82%
06:00 +10°C° 0 mm 1 mps 756 mmHg 80%
07:00 +11°C° 0 mm 1 mps 756 mmHg 77%
08:00 +12°C° 0.1 mm 1 mps 756 mmHg 71%
09:00 +13°C° 0.1 mm 1 mps 756 mmHg 65%
10:00 +15°C° 0.1 mm 1 mps 756 mmHg 59%
11:00 +16°C° 0 mm 2 mps 755 mmHg 54%
12:00 +16°C° 0 mm 2 mps 755 mmHg 50%
13:00 +17°C° 0 mm 2 mps 755 mmHg 46%
14:00 +17°C° 0 mm 2 mps 754 mmHg 49%
15:00 +17°C° 0 mm 2 mps 754 mmHg 52%
16:00 +18°C° 0 mm 1 mps 754 mmHg 54%
17:00 +15°C° 0.1 mm 2 mps 754 mmHg 60%
18:00 +14°C° 0.1 mm 2 mps 753 mmHg 65%
19:00 +12°C° 0.1 mm 2 mps 753 mmHg 70%
20:00 +12°C° 0 mm 2 mps 753 mmHg 73%
21:00 +10°C° 0 mm 2 mps 753 mmHg 76%
22:00 +9°C° 0 mm 2 mps 753 mmHg 78%
23:00 +9°C° 0 mm 2 mps 753 mmHg 81%

Tomorrow, 21 April, Wednesday

Time Temperature Precipitation Wind Pressure Humidity
00:00 +8°C° 0 mm 2 mps 753 mmHg 83%
01:00 +7°C° 0 mm 2 mps 753 mmHg 85%
02:00 +7°C° 0 mm 3 mps 753 mmHg 86%
03:00 +5°C° 0 mm 3 mps 753 mmHg 87%
04:00 +5°C° 0 mm 3 mps 753 mmHg 88%
05:00 +7°C° 0 mm 3 mps 753 mmHg 83%
06:00 +7°C° 0 mm 3 mps 753 mmHg 79%
07:00 +7°C° 0 mm 4 mps 754 mmHg 74%
08:00 +8°C° 0 mm 4 mps 753 mmHg 69%
09:00 +11°C° 0 mm 4 mps 753 mmHg 64%
10:00 +12°C° 0 mm 4 mps 753 mmHg 60%
11:00 +13°C° 0 mm 4 mps 753 mmHg 55%
12:00 +14°C° 0 mm 4 mps 753 mmHg 51%
13:00 +15°C° 0 mm 4 mps 753 mmHg 46%
14:00 +15°C° 0 mm 4 mps 752 mmHg 48%
15:00 +16°C° 0 mm 3 mps 752 mmHg 51%
16:00 +14°C° 0 mm 3 mps 752 mmHg 53%
17:00 +13°C° 0 mm 3 mps 752 mmHg 56%
18:00 +12°C° 0 mm 3 mps 752 mmHg 58%
19:00 +11°C° 0 mm 3 mps 752 mmHg 61%
20:00 +10°C° 0 mm 3 mps 752 mmHg 70%
21:00 +7°C° 0 mm 4 mps 753 mmHg 79%
22:00 +5°C° 0 mm 5 mps 753 mmHg 87%
23:00 +5°C° 0.1 mm 4 mps 753 mmHg 86%

Day after tomorrow, 22 April, Thursday

Time Temperature Precipitation Wind Pressure Humidity
00:00 +5°C° 0.1 mm 4 mps 753 mmHg 85%
01:00 +4°C° 0.1 mm 4 mps 754 mmHg 83%
02:00 +4°C° 0 mm 4 mps 754 mmHg 83%
03:00 +2°C° 0 mm 5 mps 754 mmHg 82%
04:00 +1°C° 0 mm 5 mps 754 mmHg 81%
05:00 +1°C° 0 mm 6 mps 754 mmHg 78%
06:00 +1°C° 0 mm 6 mps 755 mmHg 75%
07:00 0°C° 0 mm 7 mps 755 mmHg 72%
08:00 +2°C° 0 mm 7 mps 755 mmHg 67%
09:00 +3°C° 0 mm 7 mps 755 mmHg 62%
10:00 +4°C° 0 mm 7 mps 755 mmHg 57%
11:00 +5°C° 0.1 mm 7 mps 755 mmHg 56%
12:00 +5°C° 0.1 mm 8 mps 754 mmHg 55%
13:00 +6°C° 0.1 mm 8 mps 754 mmHg 53%
14:00 +6°C° 0.3 mm 7 mps 755 mmHg 58%
15:00 +7°C° 0.3 mm 6 mps 755 mmHg 63%
16:00 +5°C° 0.3 mm 6 mps 755 mmHg 67%
17:00 +5°C° 0.4 mm 5 mps 755 mmHg 73%
18:00 +4°C° 0.4 mm 4 mps 755 mmHg 80%
19:00 +3°C° 0.4 mm 3 mps 756 mmHg 86%
20:00 +3°C° 0 mm 3 mps 756 mmHg 87%
21:00 +2°C° 0 mm 3 mps 756 mmHg 88%
22:00 +1°C° 0 mm 3 mps 756 mmHg 89%
23:00 0°C° 0 mm 4 mps 756 mmHg 88%

23 April, Friday

Time Temperature Precipitation Wind Pressure Humidity
00:00 +1°C° 0 mm 5 mps 756 mmHg 87%
01:00 +1°C° 0 mm 5 mps 756 mmHg 87%
02:00 0°C° 0 mm 5 mps 757 mmHg 86%
03:00 -1°C° 0 mm 6 mps 757 mmHg 85%
04:00 -1°C° 0 mm 6 mps 757 mmHg 85%
05:00 +1°C° 0 mm 6 mps 758 mmHg 84%
06:00 +1°C° 0 mm 6 mps 758 mmHg 82%
07:00 +2°C° 0 mm 6 mps 759 mmHg 81%
08:00 +3°C° 0 mm 6 mps 759 mmHg 72%
09:00 +4°C° 0 mm 6 mps 759 mmHg 63%
10:00 +6°C° 0 mm 7 mps 760 mmHg 54%
11:00 +8°C° 0.1 mm 7 mps 760 mmHg 50%
12:00 +8°C° 0.1 mm 7 mps 760 mmHg 47%
13:00 +9°C° 0.1 mm 7 mps 760 mmHg 44%
14:00 +9°C° 0 mm 6 mps 760 mmHg 43%
15:00 +9°C° 0 mm 6 mps 760 mmHg 42%
16:00 +10°C° 0 mm 5 mps 760 mmHg 41%
17:00 +8°C° 0 mm 4 mps 761 mmHg 45%
18:00 +7°C° 0 mm 2 mps 761 mmHg 49%
19:00 +7°C° 0 mm 1 mps 761 mmHg 53%
20:00 +6°C° 0 mm 2 mps 761 mmHg 55%
21:00 +6°C° 0 mm 2 mps 761 mmHg 56%
22:00 +5°C° 0 mm 3 mps 760 mmHg 57%
23:00 +4°C° 0 mm 3 mps 760 mmHg 63%

24 April, Saturday

Time Temperature Precipitation Wind Pressure Humidity
00:00 +4°C° 0 mm 3 mps 760 mmHg 69%
01:00 +4°C° 0 mm 3 mps 760 mmHg 75%
02:00 +4°C° 0 mm 4 mps 760 mmHg 79%
03:00 +3°C° 0 mm 4 mps 760 mmHg 82%
04:00 +3°C° 0 mm 4 mps 760 mmHg 86%
05:00 +3°C° 0 mm 4 mps 760 mmHg 84%
06:00 +3°C° 0 mm 5 mps 760 mmHg 83%
07:00 +3°C° 0 mm 5 mps 760 mmHg 81%
08:00 +5°C° 0 mm 6 mps 760 mmHg 74%
09:00 +7°C° 0 mm 6 mps 760 mmHg 67%
10:00 +8°C° 0 mm 6 mps 760 mmHg 60%
11:00 +8°C° 0 mm 6 mps 760 mmHg 58%
12:00 +9°C° 0 mm 6 mps 760 mmHg 56%
13:00 +9°C° 0 mm 6 mps 759 mmHg 55%
14:00 +9°C° 0 mm 6 mps 760 mmHg 56%
15:00 +9°C° 0 mm 6 mps 760 mmHg 58%
16:00 +9°C° 0 mm 6 mps 760 mmHg 59%
17:00 +7°C° 0 mm 5 mps 760 mmHg 63%
18:00 +6°C° 0 mm 4 mps 760 mmHg 68%
19:00 +5°C° 0 mm 3 mps 761 mmHg 73%
20:00 +4°C° 0 mm 3 mps 761 mmHg 74%
21:00 +3°C° 0 mm 3 mps 761 mmHg 75%
22:00 +2°C° 0 mm 3 mps 762 mmHg 76%
23:00 +2°C° 0 mm 2 mps 762 mmHg 73%

25 April, Sunday

Time Temperature Precipitation Wind Pressure Humidity
00:00 +1°C° 0 mm 2 mps 762 mmHg 69%
01:00 -1°C° 0 mm 2 mps 762 mmHg 66%
02:00 -1°C° 0 mm 2 mps 763 mmHg 67%
03:00 -1°C° 0 mm 2 mps 763 mmHg 67%
04:00 -2°C° 0 mm 2 mps 763 mmHg 67%
05:00 +1°C° 0 mm 2 mps 763 mmHg 64%
06:00 +3°C° 0 mm 2 mps 763 mmHg 62%
07:00 +4°C° 0 mm 2 mps 764 mmHg 59%
08:00 +5°C° 0 mm 3 mps 764 mmHg 52%
09:00 +7°C° 0 mm 3 mps 764 mmHg 46%
10:00 +8°C° 0 mm 4 mps 764 mmHg 39%
11:00 +10°C° 0 mm 4 mps 764 mmHg 38%
12:00 +10°C° 0 mm 4 mps 764 mmHg 37%
13:00 +11°C° 0 mm 4 mps 763 mmHg 36%
14:00 +11°C° 0 mm 4 mps 763 mmHg 37%
15:00 +11°C° 0 mm 4 mps 763 mmHg 37%
16:00 +11°C° 0 mm 4 mps 763 mmHg 38%
17:00 +8°C° 0 mm 4 mps 763 mmHg 44%
18:00 +6°C° 0 mm 4 mps 763 mmHg 50%
19:00 +4°C° 0 mm 3 mps 764 mmHg 57%
20:00 +3°C° 0 mm 3 mps 764 mmHg 57%
21:00 +3°C° 0 mm 2 mps 764 mmHg 57%
22:00 +2°C° 0 mm 2 mps 764 mmHg 56%
23:00 +2°C° 0 mm 2 mps 764 mmHg 57%
Show more

We Need Your Consent

Meteoprog and our Service Providers may store and access personal data such as cookies, device identifiers or other similar technologies on your device and process such data to personalise content and ads, as well as provide social media features and to analyse the traffic.

  • Store and/or access information on your device

    Cookies, device identifiers or other information can be stored or accessed on your device for the purposes indicated above.

  • Personalised ads and content, ad and content measurement, audience insights, and products development

    Ads and content can be personalised based on a profile. More data can be added to better personalise ads and content. Ad and content performance can be measured. Insights about the audience who saw the ads and content can be derived. Such data can be used to develop or improve user’s experience, systems and software.

By clicking ‘I Agree’ you will allow the use of indicated cookies, device identifiers, web beacons or other similar technologies. Your settings can be changed in the browser on your device.

For certain purposes, legitimate interests may be relied on, rather than consent. You can read more about this in our Privacy and Cookie Policy.